{"data":{"norad_id":56564,"intl_designator":"2023-066A","name":"BEIDOU-3 G4 (C62)","alt_names":[],"object_type":"PAYLOAD","status":"ACTIVE","operator":null,"country":"PRC","launch_date":"2023-05-17","launch_site_code":"XICLF","launch_vehicle":null,"mission":null,"orbit_class":"UNKNOWN","rcs_meters":null,"size_class":null,"mass_kg":null,"dimensions":null,"purposes":["comms","nav"],"wikipedia_slug":null,"has_3d_model":false,"image_url":null,"decayed_at":null,"tle_current":{"epoch":"2026-09-19T21:03:27.808416Z","epoch_age_seconds":68099,"freshness":"FRESH","line1":"1 56564U 23066A   26262.87740519 -.00000285  00000+0  00000+0 0  9996","line2":"2 56564   0.4408 358.9188 0005347 196.9141 258.8269  1.00268831 12345","mean_motion":1.00268831,"eccentricity":0.0005347,"inclination_deg":0.4408,"raan_deg":358.9188,"arg_perigee_deg":196.9141,"mean_anomaly_deg":258.8269,"bstar":0,"rev_number":1234,"period_min":1436.1392125934,"perigee_km":35764.877169972,"apogee_km":35809.969019937,"semimajor_km":42165.560094955,"source":"CELESTRAK","updated_at":"2026-09-20T09:00:46.715075Z"}}}